Home   Weather   Jamestown   Past weeks

Flag for Saint Helena Past Weather in Jamestown, Saint Helena — Yesterday and Last 2 Weeks

Now
62 °F

Overcast.


Feels Like: 62 °F
Forecast: 67 / 70 °F
Wind: 20 mph from Southeast

Location: Saint Helena Island

Current Time: Sep 29, 2016 at 11:57:01 AM

Latest Report: Sep 29, 2016 at 11:00 AM


Visibility: 22 mi

Pressure: 30.13 "Hg

Humidity: 74%

Dew Point: 53 °F

Location of JamestownLocation

Past Weather in Jamestown — Graph

°F

Jamestown Temperature Yesterday

Maximum temperature yesterday: 63 °F (at 2:00 PM)
Minimum temperature yesterday: 58 °F (at 4:00 AM)
Average temperature yesterday: 60 °F

High & Low Weather Summary for the Past Weeks

 TemperatureHumidityPressure
High66 °F (Sep 24, 1:00 PM)100% (Sep 16, 9:00 AM)30.21 "Hg (Sep 16, 9:00 AM)
Low57 °F (Sep 15, 8:00 AM)62% (Sep 15, 1:00 PM)30.03 "Hg (Sep 25, 3:00 PM)
Average60 °F87%30.11 "Hg
* Reported Sep 14 10:00 AM — Sep 29 10:00 AM, Jamestown, Weather by CustomWeather, © 2016

Note: Actual official high and low records may vary slightly from our data, if they occured in-between our weather recording intervals... More about our weather records

Advertising

Jamestown Weather History for the Previous 24 Hours

Scroll right to see more
 ConditionsComfort  
Time TempWeatherWind HumidityBarometerVisibility
10:00 AM
Thu, Sep 29
61 °FOvercast.20 mph79%30.14 "Hg22 mi
8:00 AM60 °FCool.17 mph85%30.12 "HgN/A
7:00 AM60 °FCool.16 mph80%30.11 "HgN/A
5:00 AM59 °FCool.15 mph90%30.09 "HgN/A
4:00 AM59 °FCool.16 mph92%30.09 "HgN/A
3:00 AM58 °FCool.15 mph95%30.10 "HgN/A
2:00 AM58 °FCool.21 mph92%30.11 "HgN/A
1:00 AM58 °FCool.15 mph94%30.14 "HgN/A
11:00 PM
Wed, Sep 28
60 °FCool.16 mph91%30.16 "HgN/A
10:00 PM60 °FCool.18 mph87%30.15 "HgN/A
9:00 PM59 °FCool.17 mph97%30.14 "HgN/A
8:00 PM59 °FCool.22 mph99%30.11 "HgN/A
7:00 PM59 °FCool.24 mph91%30.10 "HgN/A
6:00 PM60 °FCool.15 mph93%30.10 "HgN/A
5:00 PM59 °FCool.16 mph92%30.09 "HgN/A
4:00 PM59 °FCool.17 mph99%30.09 "HgN/A
3:00 PM60 °FSprinkles. Dense fog.20 mph94%30.10 "Hg1 mi
2:00 PM63 °FLow clouds.17 mph82%30.10 "Hg9 mi
1:00 PM60 °FLow clouds.17 mph95%30.13 "Hg2 mi
11:00 AM61 °FLow clouds.20 mph82%30.16 "Hg19 mi
Weather by CustomWeather, © 2016

See weather overviewHow to use our weather pages